DW7013 Weather Reports


Display with metric or nautical units.
time (UTC)temp
F
wind
direction
speed
MPH
gust
MPH
rain 1hr
in
rain 24hr
in
rain mn
in
humidity
%
barometer
mb
20260504120220 63 14 2.0 7.0 0.00 0.00 0.00 55 1014.4
20260504110222 65 172 0.0 6.0 0.00 0.00 0.00 48 1014.4
20260504100218 63 225 0.0 0.0 0.00 0.00 0.00 49 1014.8
20260504081727 57 171 0.0 0.0 0.00 0.00 0.00 65 1015.6
20260504080214 57 182 0.0 0.0 0.00 0.00 0.00 66 1015.5
20260504070222 54 288 0.0 0.0 0.00 0.00 0.00 72 1015.6
20260504060228 51 107 0.0 0.0 0.00 0.00 0.00 76 1015.3
20260504050719 48 132 0.0 0.0 0.00 0.00 0.00 76 1015.6
20260504050209 48 248 0.0 0.0 0.00 0.00 0.00 76 1015.5
20260504045718 48 260 0.0 0.0 0.00 0.00 0.00 76 1015.5
20260504045211 48 260 0.0 0.0 0.00 0.00 0.00 76 1015.6
20260504044219 48 137 0.0 0.0 0.00 0.00 0.00 77 1015.7
20260504043722 48 137 0.0 0.0 0.00 0.00 0.00 76 1015.7
20260504043216 47 269 0.0 0.0 0.00 0.00 0.00 76 1015.7
20260504042228 48 192 0.0 0.0 0.00 0.00 0.00 76 1015.6
20260504040718 47 0 0.0 0.0 0.00 0.00 0.00 77 1015.7
20260504040214 47 21 0.0 0.0 0.00 0.00 0.00 77 1015.8
20260504035724 46 355 0.0 0.0 0.00 0.00 0.00 77 1015.9
20260504035227 46 35 0.0 0.0 0.00 0.00 0.00 78 1015.9
20260504034726 46 355 0.0 0.0 0.00 0.00 0.00 79 1016.0
20260504034217 46 106 0.0 0.0 0.00 0.00 0.00 78 1016.1
20260504033710 46 133 0.0 0.0 0.00 0.00 0.00 79 1016.2
20260504033221 46 133 0.0 0.0 0.00 0.00 0.00 78 1016.4
20260504032707 46 133 0.0 0.0 0.00 0.00 0.00 79 1016.4
20260504032222 46 133 0.0 0.0 0.00 0.00 0.00 78 1016.4
20260504031724 46 133 0.0 0.0 0.00 0.00 0.00 79 1016.4
20260504031218 46 133 0.0 0.0 0.00 0.00 0.00 78 1016.4
20260504030720 46 133 0.0 0.0 0.00 0.00 0.00 78 1016.4
20260504030233 46 133 0.0 0.0 0.00 0.00 0.00 77 1016.4
20260504025226 46 133 0.0 0.0 0.00 0.00 0.00 77 1016.4
20260504024724 47 355 0.0 0.0 0.00 0.00 0.00 76 1016.5
20260504024231 47 355 0.0 0.0 0.00 0.00 0.00 76 1016.5
20260504023734 47 350 0.0 0.0 0.00 0.00 0.00 76 1016.4
20260504023222 47 172 0.0 0.0 0.00 0.00 0.00 76 1016.4
20260504022718 47 174 0.0 0.0 0.00 0.00 0.00 76 1016.4
20260504022215 47 174 0.0 0.0 0.00 0.00 0.00 76 1016.2
20260504021715 47 174 0.0 0.0 0.00 0.00 0.00 76 1016.4
20260504021226 47 220 0.0 0.0 0.00 0.00 0.00 76 1016.4
20260504020731 47 139 0.0 0.0 0.00 0.00 0.00 76 1016.4
20260504020224 48 142 0.0 0.0 0.00 0.00 0.00 76 1016.4
20260504015722 48 124 0.0 0.0 0.00 0.00 0.00 76 1016.2
20260504015225 48 319 0.0 0.0 0.00 0.00 0.00 76 1016.2
20260504014732 48 128 0.0 0.0 0.00 0.00 0.00 75 1016.2
20260504014234 48 63 0.0 0.0 0.00 0.00 0.00 75 1016.2
20260504013724 48 51 0.0 0.0 0.00 0.00 0.00 75 1016.4
20260504013223 49 51 0.0 0.0 0.00 0.00 0.00 74 1016.4
20260504012708 49 51 0.0 0.0 0.00 0.00 0.00 74 1016.4
20260504012207 49 51 0.0 0.0 0.00 0.00 0.00 74 1016.4
20260504011711 49 51 0.0 0.0 0.00 0.00 0.00 74 1016.4
20260504011216 49 51 0.0 0.0 0.00 0.00 0.00 73 1016.4
20260504010719 49 51 0.0 0.0 0.00 0.00 0.00 73 1016.4
20260504010246 50 51 0.0 0.0 0.00 0.00 0.00 73 1016.4
20260504005719 50 355 0.0 0.0 0.00 0.00 0.00 72 1016.4
20260504005213 50 355 0.0 0.0 0.00 0.00 0.00 72 1016.4
20260504004727 50 355 0.0 0.0 0.00 0.00 0.00 72 1016.4
20260504004224 50 355 0.0 0.0 0.00 0.00 0.00 72 1016.2
20260504003714 51 355 0.0 0.0 0.00 0.00 0.00 71 1016.4
20260504003227 51 355 0.0 0.0 0.00 0.00 0.00 72 1016.2
20260504002722 51 355 0.0 0.0 0.00 0.00 0.00 72 1016.4
20260504002215 51 355 0.0 0.0 0.00 0.00 0.00 72 1016.5
20260504001731 51 355 0.0 0.0 0.00 0.00 0.00 71 1016.5
20260504001219 51 5 0.0 0.0 0.00 0.00 0.00 72 1016.5
20260504000721 51 5 0.0 0.0 0.00 0.00 0.00 71 1016.5
20260504000219 51 5 0.0 0.0 0.00 0.00 0.00 71 1016.4
20260503235744 51 5 0.0 0.0 0.00 0.00 0.00 71 1016.5
20260503235215 51 5 0.0 0.0 0.00 0.00 0.00 71 1016.5
20260503234715 51 5 0.0 0.0 0.00 0.00 0.00 71 1016.5
20260503234213 52 5 0.0 0.0 0.00 0.00 0.00 70 1016.4
20260503233722 52 5 0.0 0.0 0.00 0.00 0.00 71 1016.5
20260503233222 52 5 0.0 0.0 0.00 0.00 0.00 70 1016.5
20260503232724 52 5 0.0 0.0 0.00 0.00 0.00 70 1016.4
20260503232229 52 5 0.0 0.0 0.00 0.00 0.00 70 1016.4
20260503231713 52 355 0.0 0.0 0.00 0.00 0.00 70 1016.5
20260503230723 52 355 0.0 0.0 0.00 0.00 0.00 69 1016.4
20260503230214 52 355 0.0 0.0 0.00 0.00 0.00 69 1016.4
20260503225721 53 355 0.0 0.0 0.00 0.00 0.00 69 1016.5
20260503225223 53 355 0.0 0.0 0.00 0.00 0.00 69 1016.4
20260503224718 53 355 0.0 0.0 0.00 0.00 0.00 68 1016.4
20260503224214 53 355 0.0 0.0 0.00 0.00 0.00 69 1016.4
20260503223709 53 355 0.0 0.0 0.00 0.00 0.00 68 1016.4
20260503223209 53 355 0.0 0.0 0.00 0.00 0.00 68 1016.2
20260503222709 53 355 0.0 0.0 0.00 0.00 0.00 68 1016.2
20260503222224 53 355 0.0 0.0 0.00 0.00 0.00 68 1016.2
20260503221728 53 355 0.0 0.0 0.00 0.00 0.00 68 1016.1
20260503221211 53 355 0.0 0.0 0.00 0.00 0.00 68 1016.1
20260503215722 53 355 0.0 0.0 0.00 0.00 0.00 67 1016.2
20260503215219 53 355 0.0 0.0 0.00 0.00 0.00 67 1016.1
20260503214720 53 355 0.0 0.0 0.00 0.00 0.00 67 1016.2
20260503214225 53 355 0.0 0.0 0.00 0.00 0.00 67 1016.2
20260503213720 53 341 0.0 0.0 0.00 0.00 0.00 68 1016.2
20260503213219 53 341 0.0 0.0 0.00 0.00 0.00 68 1016.2
20260503212216 53 341 0.0 0.0 0.00 0.00 0.00 66 1016.2
20260503211218 53 344 0.0 0.0 0.00 0.00 0.00 67 1016.2
20260503210712 53 344 0.0 0.0 0.00 0.00 0.00 66 1016.1
20260503210222 53 344 0.0 0.0 0.00 0.00 0.00 67 1016.1
20260503205723 53 344 0.0 0.0 0.00 0.00 0.00 67 1016.1
20260503205226 54 344 0.0 0.0 0.00 0.00 0.00 67 1016.1
20260503204223 54 344 0.0 0.0 0.00 0.00 0.00 66 1016.2
20260503203719 54 344 0.0 0.0 0.00 0.00 0.00 66 1016.2
20260503203209 54 344 0.0 0.0 0.00 0.00 0.00 66 1016.2
20260503202723 54 344 0.0 0.0 0.00 0.00 0.00 66 1016.2
20260503202226 54 348 0.0 0.0 0.00 0.00 0.00 65 1016.2
20260503201719 54 348 0.0 0.0 0.00 0.00 0.00 65 1016.4
20260503201227 54 348 0.0 0.0 0.00 0.00 0.00 65 1016.2
20260503200724 54 308 0.0 0.0 0.00 0.00 0.00 64 1016.2
20260503200224 54 304 0.0 0.0 0.00 0.00 0.00 64 1016.1
20260503195722 54 304 0.0 0.0 0.00 0.00 0.00 63 1016.1
20260503195216 55 308 0.0 0.0 0.00 0.00 0.00 63 1016.1
20260503194715 55 319 0.0 0.0 0.00 0.00 0.00 62 1016.1
20260503194228 55 319 0.0 0.0 0.00 0.00 0.00 61 1016.0
20260503193714 55 319 0.0 0.0 0.00 0.00 0.00 62 1016.0
20260503193222 55 304 0.0 0.0 0.00 0.00 0.00 61 1015.9
20260503192720 55 136 0.0 0.0 0.00 0.00 0.00 60 1016.0
20260503191220 55 146 0.0 0.0 0.00 0.00 0.00 59 1015.8
20260503190749 55 148 0.0 0.0 0.00 0.00 0.00 59 1015.8
20260503185722 56 73 0.0 0.0 0.00 0.00 0.00 59 1015.7
20260503185219 56 116 0.0 0.0 0.00 0.00 0.00 57 1015.8
20260503184710 56 117 0.0 0.0 0.00 0.00 0.00 57 1015.8
20260503183716 56 301 0.0 0.0 0.00 0.00 0.00 55 1015.9
20260503183217 56 326 0.0 0.0 0.00 0.00 0.00 55 1015.9
20260503182209 56 326 0.0 0.0 0.00 0.00 0.00 54 1015.9
20260503181727 56 342 0.0 0.0 0.00 0.00 0.00 55 1015.9
20260503181224 56 47 0.0 0.0 0.00 0.00 0.00 55 1015.8
20260503180709 56 13 0.0 0.0 0.00 0.00 0.00 54 1016.0
20260503180227 56 118 0.0 0.0 0.00 0.00 0.00 54 1016.0
20260503175713 56 308 0.0 0.0 0.00 0.00 0.00 54 1016.1
20260503175224 56 306 0.0 2.0 0.00 0.00 0.00 54 1016.0
20260503174726 56 343 0.0 2.0 0.00 0.00 0.00 55 1016.0
20260503174218 56 348 0.0 2.0 0.00 0.00 0.00 54 1016.1
20260503173705 56 328 0.0 1.0 0.00 0.00 0.00 54 1016.2
20260503173222 56 123 0.0 1.0 0.00 0.00 0.00 55 1016.4
20260503172729 56 55 0.0 7.0 0.00 0.00 0.00 56 1016.5
20260503171711 56 11 3.0 8.0 0.00 0.00 0.00 57 1016.6
20260503171218 56 318 4.0 8.0 0.00 0.00 0.00 58 1016.6
20260503170729 57 312 4.0 8.0 0.00 0.00 0.00 58 1016.6
20260503160218 60 92 0.0 0.0 0.00 0.00 0.00 50 1016.6
20260503150725 62 113 4.0 15.0 0.00 0.00 0.00 45 1016.1
20260503150217 62 9 5.0 17.0 0.00 0.00 0.00 44 1016.0
20260503131220 69 258 4.0 13.0 0.00 0.00 0.00 42 1015.6
20260503130715 69 46 6.0 17.0 0.00 0.00 0.00 43 1015.8
20260503130218 69 331 7.0 17.0 0.00 0.00 0.00 44 1015.7